Погода в Пролетарии

Россия / Новгородская область     58°26′14″N   31°42′29″E
темп.,
°C
ветер,
м/с
пор.,
м/с
влажн.,
%
обл.,
%
осадки,
мм/ч
давл.,
гПа
погр.,
м
14 июня, пн
пн1400:00+14сз279881 0.0 1009196
03:00+13сз2599100 0.0 1011166
06:00+13ссз389651 0.0 1013318
09:00+17с3569100 0.0 1015695
12:00+21ссз234313 0.0 10161670
15:00+22з3338100 0.0 10162028
18:00+21зюз334486 0.0 10161070
21:00+16юз2265100 0.0 101522
15 июня, вт
вт1500:00+14юз2270100 0.0 101525
03:00+12ю248911 0.0 101476
06:00+14ююз39745 0.0 1013273
09:00+18юз5105332 0.0 1012706
12:00+21юз6943100 0.0 10111229
15:00+22зюз5851100 0.0 10101600
18:00+17юз2683100 0.1 1010377
21:00+17юз2684100 0.1 1010165
16 июня, ср
ср1600:00+12сз23780 0.0 101167
03:00+10сз26775 0.0 101399
06:00+11сз29730 0.0 1015290
09:00+17сз354615 0.0 1017991
12:00+20сз353664 0.0 10181812
15:00+21з3634100 0.0 10182361
18:00+20зюз344495 0.0 10181484
21:00+16зюз22695 0.0 101929
17 июня, чт
чт1700:00+14з25675 0.0 102096
03:00+11зюз22815 0.0 102241
06:00+14юз25753 0.0 1023176
09:00+18юз345552 0.0 1024523
12:00+22юз35445 0.0 10241200
15:00+24юз3440100 0.0 10241632
18:00+23ююз2449100 0.0 1024486
21:00+19ююз2268100 0.0 102432
18 июня, пт
пт1800:00+16ююз11810 0.0 102511
03:00+14ююз23884 0.0 102654
06:00+16ююз26795 0.0 1026169
09:00+20ююз355553 0.0 1025403
12:00+24юз464751 0.0 1025825
15:00+26юз46405 0.0 10241610
18:00+26юз37440 0.0 10221222
21:00+21ююз38670 0.0 1022154